Time,TemperatureF,DewpointF,PressureIn,WindDirection,WindDirectionDegrees,WindSpeedMPH,WindSpeedGustMPH,Humidity,HourlyPrecipIn,Conditions,Clouds,dailyrainin,SoftwareType,DateUTC
2013-05-28 00:00:00,61.5,52.4,30.02,SE,143,0.0,4.0,72,0.00,,SCT110,0.03,VWS V14.01,2013-05-28 04:00:00,
2013-05-28 00:15:00,61.6,52.9,30.02,SE,143,0.0,0.0,73,0.00,,CLR,0.00,VWS V14.01,2013-05-28 04:15:00,
2013-05-28 00:30:00,61.6,52.9,30.02,SE,143,0.0,0.0,73,0.00,,CLR,0.00,VWS V14.01,2013-05-28 04:30:00,
2013-05-28 00:45:00,61.6,53.2,30.02,SE,143,0.0,0.0,74,0.00,,CLR,0.00,VWS V14.01,2013-05-28 04:45:00,
2013-05-28 01:00:00,61.6,53.6,30.01,SE,143,0.0,0.0,75,0.00,,CLR,0.00,VWS V14.01,2013-05-28 05:00:00,
2013-05-28 01:15:00,61.8,53.8,30.00,SE,143,0.0,0.0,75,0.00,,OVC120,0.00,VWS V14.01,2013-05-28 05:15:00,
2013-05-28 01:30:00,61.8,53.8,30.00,SE,143,0.0,0.0,75,0.00,,OVC120,0.00,VWS V14.01,2013-05-28 05:30:00,
2013-05-28 01:45:00,62.0,54.4,29.99,South,169,0.0,5.0,76,0.00,,OVC120,0.00,VWS V14.01,2013-05-28 05:45:00,
2013-05-28 02:00:00,62.3,54.3,29.99,South,171,0.0,1.0,75,0.00,,OVC120,0.00,VWS V14.01,2013-05-28 06:00:00,
2013-05-28 02:15:00,62.3,54.7,29.97,South,171,0.0,0.0,76,0.00,,OVC110,0.00,VWS V14.01,2013-05-28 06:15:00,
2013-05-28 02:30:00,62.1,54.8,29.97,South,171,0.0,0.0,77,0.00,,OVC110,0.00,VWS V14.01,2013-05-28 06:30:00,
2013-05-28 02:45:00,61.8,54.9,29.96,South,171,0.0,0.0,78,0.00,,OVC110,0.00,VWS V14.01,2013-05-28 06:45:00,
2013-05-28 03:00:00,61.8,54.9,29.96,South,171,0.0,0.0,78,0.00,,OVC110,0.00,VWS V14.01,2013-05-28 07:00:00,
2013-05-28 03:15:00,61.8,55.2,29.97,South,169,0.0,0.0,79,0.00,,FEW100,0.00,VWS V14.01,2013-05-28 07:15:00,
2013-05-28 03:30:00,62.0,55.4,29.97,South,169,0.0,0.0,79,0.00,,FEW100,0.00,VWS V14.01,2013-05-28 07:30:00,
2013-05-28 03:45:00,62.0,55.8,29.97,South,169,0.0,0.0,80,0.00,,FEW100,0.00,VWS V14.01,2013-05-28 07:45:00,
2013-05-28 04:00:00,62.3,56.1,29.98,South,169,0.0,0.0,80,0.00,,FEW100,0.00,VWS V14.01,2013-05-28 08:00:00,
2013-05-28 04:15:00,62.4,56.8,29.99,SW,234,0.0,3.0,82,0.00,,BKN110,0.00,VWS V14.01,2013-05-28 08:15:00,
2013-05-28 04:30:00,62.9,58.0,29.99,SSW,213,0.0,6.0,84,0.00,,BKN110,0.00,VWS V14.01,2013-05-28 08:30:00,
2013-05-28 04:45:00,63.2,58.3,29.98,SSW,213,0.0,1.0,84,0.00,,BKN110,0.00,VWS V14.01,2013-05-28 08:45:00,
2013-05-28 05:00:00,63.2,58.3,29.98,SSW,200,1.0,5.0,84,0.01,,BKN110,0.01,VWS V14.01,2013-05-28 09:00:00,
2013-05-28 05:15:00,63.5,58.6,29.99,SSW,210,0.0,5.0,84,0.01,,OVC110,0.01,VWS V14.01,2013-05-28 09:15:00,
2013-05-28 05:30:00,63.7,58.8,29.99,SW,216,0.0,1.0,84,0.01,,OVC110,0.01,VWS V14.01,2013-05-28 09:30:00,
2013-05-28 05:45:00,63.9,58.6,29.99,SW,216,0.0,5.0,83,0.01,,OVC110,0.01,VWS V14.01,2013-05-28 09:45:00,
2013-05-28 06:00:00,64.0,58.7,30.00,SSW,198,0.0,1.0,83,0.01,,OVC110,0.01,VWS V14.01,2013-05-28 10:00:00,
2013-05-28 06:15:00,64.7,58.4,30.00,SW,217,2.0,10.0,80,0.00,,BKN070,0.01,VWS V14.01,2013-05-28 10:15:00,
2013-05-28 06:30:00,66.4,58.6,30.00,SW,216,5.0,7.0,76,0.00,,BKN070,0.01,VWS V14.01,2013-05-28 10:30:00,
2013-05-28 06:45:00,67.3,59.1,30.01,SW,217,0.0,11.0,75,0.00,,BKN070,0.01,VWS V14.01,2013-05-28 10:45:00,
2013-05-28 07:00:00,66.8,59.0,30.01,SW,220,1.0,6.0,76,0.00,,BKN070,0.01,VWS V14.01,2013-05-28 11:00:00,
2013-05-28 07:15:00,67.1,58.9,30.01,SSW,205,0.0,5.0,75,0.00,,OVC095,0.01,VWS V14.01,2013-05-28 11:15:00,
2013-05-28 07:30:00,67.1,59.3,30.01,SSW,200,0.0,1.0,76,0.00,,OVC095,0.01,VWS V14.01,2013-05-28 11:30:00,
2013-05-28 07:45:00,68.3,60.1,30.01,South,185,2.0,7.0,75,0.00,,OVC095,0.01,VWS V14.01,2013-05-28 11:45:00,
2013-05-28 08:00:00,68.9,59.9,30.02,SSW,212,0.0,8.0,73,0.00,,OVC095,0.01,VWS V14.01,2013-05-28 12:00:00,
2013-05-28 08:15:00,69.8,60.0,30.02,SW,223,0.0,10.0,71,0.00,,BKN100,0.01,VWS V14.01,2013-05-28 12:15:00,
2013-05-28 08:30:00,70.4,60.2,30.02,SW,217,0.0,11.0,70,0.00,,BKN100,0.01,VWS V14.01,2013-05-28 12:30:00,
2013-05-28 08:45:00,70.8,60.1,30.03,SW,215,0.0,14.0,69,0.00,,BKN100,0.01,VWS V14.01,2013-05-28 12:45:00,
2013-05-28 09:00:00,71.1,60.8,30.03,SSW,208,5.0,13.0,70,0.00,,BKN100,0.01,VWS V14.01,2013-05-28 13:00:00,
2013-05-28 09:15:00,71.3,61.0,30.03,SW,217,5.0,12.0,70,0.00,,BKN100,0.01,VWS V14.01,2013-05-28 13:15:00,
2013-05-28 09:30:00,72.1,61.0,30.03,SSW,208,0.0,13.0,68,0.00,,OVC085,0.01,VWS V14.01,2013-05-28 13:30:00,
2013-05-28 09:45:00,74.4,62.3,30.03,SW,226,0.0,11.0,66,0.00,,OVC085,0.01,VWS V14.01,2013-05-28 13:45:00,
2013-05-28 10:00:00,74.0,61.5,30.03,SSW,209,0.0,10.0,65,0.00,,OVC085,0.01,VWS V14.01,2013-05-28 14:00:00,
2013-05-28 10:15:00,73.9,61.4,30.03,SW,216,0.0,17.0,65,0.00,,CLR,0.01,VWS V14.01,2013-05-28 14:15:00,
2013-05-28 10:30:00,74.7,62.2,30.03,SW,230,0.0,13.0,65,0.00,,CLR,0.01,VWS V14.01,2013-05-28 14:30:00,
2013-05-28 10:45:00,74.9,63.2,30.03,SSW,193,0.0,11.0,67,0.00,,CLR,0.01,VWS V14.01,2013-05-28 14:45:00,
2013-05-28 11:00:00,76.1,63.0,30.03,WSW,240,2.0,11.0,64,0.00,,CLR,0.01,VWS V14.01,2013-05-28 15:00:00,
2013-05-28 11:15:00,77.9,62.9,30.03,SW,224,8.0,14.0,60,0.00,,OVC090,0.01,VWS V14.01,2013-05-28 15:15:00,
2013-05-28 11:30:00,78.6,62.6,30.02,SSW,199,5.0,14.0,58,0.00,,OVC090,0.01,VWS V14.01,2013-05-28 15:30:00,
2013-05-28 11:45:00,79.6,63.5,30.02,SW,215,9.0,16.0,58,0.00,,OVC090,0.01,VWS V14.01,2013-05-28 15:45:00,
2013-05-28 12:00:00,79.9,64.3,30.02,SSW,196,0.0,17.0,59,0.00,,OVC090,0.01,VWS V14.01,2013-05-28 16:00:00,
2013-05-28 12:15:00,80.5,64.4,30.01,South,182,0.0,19.0,58,0.00,,OVC090,0.01,VWS V14.01,2013-05-28 16:15:00,
2013-05-28 12:30:00,80.7,63.0,30.01,SSW,200,7.0,19.0,55,0.00,,OVC090,0.01,VWS V14.01,2013-05-28 16:30:00,
2013-05-28 12:45:00,81.1,62.9,30.00,SW,234,0.0,20.0,54,0.00,,CLR,0.01,VWS V14.01,2013-05-28 16:45:00,
2013-05-28 13:00:00,81.8,62.5,30.00,South,191,10.0,17.0,52,0.00,,CLR,0.01,VWS V14.01,2013-05-28 17:00:00,
2013-05-28 13:15:00,82.0,62.7,29.99,SW,233,0.0,14.0,52,0.00,,CLR,0.01,VWS V14.01,2013-05-28 17:15:00,
2013-05-28 13:30:00,81.1,62.4,29.99,SSW,200,5.0,13.0,53,0.00,,SCT050,0.01,VWS V14.01,2013-05-28 17:30:00,
2013-05-28 13:45:00,80.9,62.7,29.99,SW,220,0.0,14.0,54,0.00,,SCT050,0.01,VWS V14.01,2013-05-28 17:45:00,
2013-05-28 14:00:00,80.9,63.2,29.99,SW,227,0.0,21.0,55,0.00,,SCT050,0.01,VWS V14.01,2013-05-28 18:00:00,
2013-05-28 14:15:00,81.1,62.9,29.98,SW,234,13.0,13.0,54,0.00,,SCT070,0.01,VWS V14.01,2013-05-28 18:15:00,
2013-05-28 14:30:00,81.6,63.9,29.97,SSW,198,0.0,13.0,55,0.00,,SCT070,0.01,VWS V14.01,2013-05-28 18:30:00,
2013-05-28 14:45:00,82.4,64.1,29.97,SW,219,12.0,17.0,54,0.00,,SCT070,0.01,VWS V14.01,2013-05-28 18:45:00,
2013-05-28 15:00:00,82.4,62.5,29.97,SSW,193,8.0,18.0,51,0.00,,SCT070,0.01,VWS V14.01,2013-05-28 19:00:00,
2013-05-28 15:15:00,82.2,63.4,29.98,SW,226,12.0,13.0,53,0.00,,SCT070,0.01,VWS V14.01,2013-05-28 19:15:00,
2013-05-28 15:30:00,82.4,63.6,29.97,South,181,5.0,19.0,53,0.00,,FEW050,0.01,VWS V14.01,2013-05-28 19:30:00,
2013-05-28 15:45:00,83.2,62.7,29.97,SSW,192,10.0,19.0,50,0.00,,FEW050,0.01,VWS V14.01,2013-05-28 19:45:00,
2013-05-28 16:00:00,82.8,61.7,29.96,SSW,200,3.0,17.0,49,0.00,,FEW050,0.01,VWS V14.01,2013-05-28 20:00:00,
2013-05-28 16:15:00,82.6,60.9,29.96,SW,216,5.0,24.0,48,0.00,,FEW050,0.01,VWS V14.01,2013-05-28 20:15:00,
2013-05-28 16:30:00,82.8,61.1,29.95,SSW,203,0.0,18.0,48,0.00,,FEW050,0.01,VWS V14.01,2013-05-28 20:30:00,
2013-05-28 16:45:00,83.4,60.5,29.95,South,188,6.0,21.0,46,0.00,,SCT075,0.01,VWS V14.01,2013-05-28 20:45:00,
2013-05-28 17:00:00,82.8,59.9,29.95,SSW,210,3.0,16.0,46,0.00,,SCT075,0.01,VWS V14.01,2013-05-28 21:00:00,
2013-05-28 17:15:00,82.6,60.9,29.94,SW,216,3.0,17.0,48,0.00,,SCT075,0.01,VWS V14.01,2013-05-28 21:15:00,
2013-05-28 17:30:00,83.2,62.1,29.94,SSW,200,11.0,17.0,49,0.00,,CLR,0.01,VWS V14.01,2013-05-28 21:30:00,
2013-05-28 17:45:00,82.8,60.5,29.94,SW,234,11.0,20.0,47,0.00,,CLR,0.01,VWS V14.01,2013-05-28 21:45:00,
2013-05-28 18:00:00,83.0,60.1,29.94,SSW,210,16.0,18.0,46,0.00,,CLR,0.01,VWS V14.01,2013-05-28 22:00:00,
2013-05-28 18:15:00,83.4,61.1,29.94,SSW,210,1.0,17.0,47,0.00,,CLR,0.01,VWS V14.01,2013-05-28 22:15:00,
2013-05-28 18:30:00,82.0,60.4,29.94,SW,223,2.0,20.0,48,0.00,,CLR,0.01,VWS V14.01,2013-05-28 22:30:00,
2013-05-28 18:45:00,81.4,59.8,29.93,WSW,248,17.0,20.0,48,0.00,,CLR,0.01,VWS V14.01,2013-05-28 22:45:00,
2013-05-28 19:00:00,81.4,60.4,29.94,SSW,196,0.0,20.0,49,0.00,,CLR,0.01,VWS V14.01,2013-05-28 23:00:00,
2013-05-28 19:15:00,81.1,60.2,29.94,SW,215,0.0,16.0,49,0.00,,SCT060,0.01,VWS V14.01,2013-05-28 23:15:00,
2013-05-28 19:30:00,80.5,60.2,29.94,WNW,284,4.0,14.0,50,0.00,,SCT060,0.01,VWS V14.01,2013-05-28 23:30:00,
2013-05-28 19:45:00,80.1,60.4,29.94,SSW,206,0.0,12.0,51,0.00,,SCT060,0.01,VWS V14.01,2013-05-28 23:45:00,
2013-05-28 20:00:00,79.8,60.6,29.95,South,188,5.0,10.0,52,0.00,,SCT060,0.01,VWS V14.01,2013-05-29 00:00:00,
2013-05-28 20:15:00,79.2,60.6,29.96,SW,220,2.0,8.0,53,0.00,,FEW060,0.01,VWS V14.01,2013-05-29 00:15:00,
2013-05-28 20:30:00,78.6,60.6,29.96,WSW,237,0.0,8.0,54,0.00,,FEW060,0.01,VWS V14.01,2013-05-29 00:30:00,
2013-05-28 20:45:00,78.1,60.6,29.96,SSW,205,0.0,2.0,55,0.00,,FEW060,0.01,VWS V14.01,2013-05-29 00:45:00,
2013-05-28 21:00:00,77.0,60.6,29.96,SSW,200,0.0,0.0,57,0.00,,FEW060,0.01,VWS V14.01,2013-05-29 01:00:00,
2013-05-28 21:15:00,76.0,61.1,29.95,SSW,199,0.0,0.0,60,0.00,,CLR,0.01,VWS V14.01,2013-05-29 01:15:00,
2013-05-28 21:30:00,75.1,60.8,29.96,SSW,199,0.0,0.0,61,0.00,,CLR,0.01,VWS V14.01,2013-05-29 01:30:00,
2013-05-28 21:45:00,74.2,60.8,29.96,SSW,199,0.0,0.0,63,0.00,,CLR,0.01,VWS V14.01,2013-05-29 01:45:00,
2013-05-28 22:00:00,73.3,60.8,29.96,SSW,199,0.0,0.0,65,0.00,,CLR,0.01,VWS V14.01,2013-05-29 02:00:00,
2013-05-28 22:15:00,72.5,60.9,29.96,SSW,199,0.0,0.0,67,0.00,,CLR,0.01,VWS V14.01,2013-05-29 02:15:00,
2013-05-28 22:30:00,71.5,60.8,29.96,SSW,199,0.0,0.0,69,0.00,,CLR,0.01,VWS V14.01,2013-05-29 02:30:00,
2013-05-28 22:45:00,70.9,60.6,29.97,SSW,199,0.0,0.0,70,0.00,,CLR,0.01,VWS V14.01,2013-05-29 02:45:00,
2013-05-28 23:00:00,70.3,60.9,29.97,SSW,199,0.0,0.0,72,0.00,,CLR,0.01,VWS V14.01,2013-05-29 03:00:00,
2013-05-28 23:15:00,69.4,60.8,29.98,SSW,199,0.0,0.0,74,0.00,,CLR,0.01,VWS V14.01,2013-05-29 03:15:00,
2013-05-28 23:30:00,68.4,60.5,29.97,SSW,199,0.0,0.0,76,0.00,,CLR,0.01,VWS V14.01,2013-05-29 03:30:00,
2013-05-28 23:45:00,68.1,60.6,29.97,SSW,199,0.0,0.0,77,0.00,,CLR,0.01,VWS V14.01,2013-05-29 03:45:00,